Regional Weather Roundup
Issued by NWS

Home | Current Version | Previous Version | Graphics & Text | Print | Product List | Glossary On
Versions: 1 2 3 4 5 6 7 8 9 10 11 12 13 14 15 16 17 18 19 20 21 22 23 24 25 26 27 28 29 30 31 32 33 34 35 36 37 38 39 40 41 42 43 44 45 46 47 48 49 50
000
ASUS45 KTFX 300004
RWRMT
MONTANA HOURLY WEATHER ROUNDUP
NATIONAL WEATHER SERVICE GREAT FALLS MT
604 PM MDT MON SEP 29 2014

NOTE: "FAIR" INDICATES FEW OR NO CLOUDS BELOW 12000 FEET WITH NO
SIGNIFICANT WEATHER AND/OR OBSTRUCTIONS TO VISIBILITY.

* THESE STATIONS ARE NOT UNDER NWS QUALITY CONTROL. THEY DO NOT
   REPORT WEATHER SUCH AS PRECIPITATION OR FOG.

MTZ001>007-043-300100-
WEST OF THE DIVIDE
CITY           SKY/WX    TMP DP  RH WIND       PRES   REMARKS
KALISPELL      CLOUDY    57  46  67 SE9       29.78F
MISSOULA       LGT RAIN  55  50  83 N6        29.84S
BUTTE          MOCLDY    57  37  47 W10       29.86R
MULLAN PASS    FOG       43  43 100 VRB3      29.90S VSB M1/4
* ESSEX        N/A       56  44  64 W2         N/A
* LINCOLN      N/A       57  42  57 SW6G12     N/A
* LOOKOUT PASS N/A       49  45  86 N4         N/A
* POLSON       N/A       54  44  69 SE1        N/A
* RONAN APT    CLOUDY    57  48  72 N/A        N/A
* SEELEY LAKE  N/A       56  44  64 NW5        N/A
* THOMP F APT  CLOUDY    48  42  80 S10G16     N/A
* YAAK HILL    N/A       63  43  48 S1         N/A
$$

MTZ008-052>055-300100-
SOUTHWEST MONTANA
CITY           SKY/WX    TMP DP  RH WIND       PRES   REMARKS
BOZEMAN        PTCLDY    61  45  56 SE9       29.83F
DILLON         PTCLDY    61  39  44 W12       29.84R
W YELLOWSTONE  MOCLDY    46  39  77 SW10G21   29.96F
* THREE FORKS  PTCLDY    64  64 100 E6         N/A
* BOULDER HILL N/A       56  34  44 SW4        N/A
* RAYNOLDS PAS N/A       50  31  48 SE16       N/A
* WHITEHALL    N/A       63  44  50 SW6G12     N/A
* WISE RIVER   N/A       56  40  55 NW12G19    N/A
$$

MTZ009>010-012-014-046-048-049-054-300100-
EAST SLOPES AND CENTRAL MONTANA
CITY           SKY/WX    TMP DP  RH WIND       PRES   REMARKS
CUT BANK       MOCLDY    61  43  52 W20G29    29.70S
GREAT FALLS    MOCLDY    63  45  52 SW14      29.71F
HELENA         CLOUDY    63  48  58 E6        29.76S
MALMSTROM AFB  PTCLDY    64  45  50 SW14      29.73F
* CONRAD       PTCLDY    68  48  49 N/A        N/A
* DEARBORN     N/A       65  43  45 S14G19     N/A
* EAST GLACIER N/A       54  43  67 W19G29     N/A
* MONARCH      N/A       56  31  39 S8G16      N/A
* PENDROY      N/A       61  40  46 W9         N/A
* ROGERS PASS  N/A       52  41  66 SE9G22     N/A
* SAINT MARY   N/A       55  42  62 S11G28     N/A
* SWEET GRASS  N/A       59  46  62 S16        N/A
$$

MTZ011-013-016-021-035-040-045-047-050-051-300100-
NORTH CENTRAL MONTANA
CITY           SKY/WX    TMP DP  RH WIND       PRES   REMARKS
LEWISTOWN      CLOUDY    55  50  83 E7        29.78F
* CHESTER      N/A       60  47  62 SE11G20    N/A
* DENTON       N/A       56  45  67 SE12G17    N/A
* GEYSER       N/A       63  42  46 SW2        N/A
* JUDITH GAP   N/A       51  47  86 SE12       N/A
* LOMA         N/A       59  50  72 E17G22     N/A
$$

MTZ017>020-022>027-061-062-300100-
NORTHEAST MONTANA
CITY           SKY/WX    TMP DP  RH WIND       PRES   REMARKS
GLASGOW        CLOUDY    50  46  86 SE17      29.86F
GLENDIVE       CLOUDY    52  48  86 E12       29.93S
JORDAN         MOCLDY    54  48  80 SE12      29.84F
SIDNEY         CLOUDY    50  46  86 E7        29.96F
WOLF POINT     CLOUDY    50  46  86 E10       29.91F
* BEAVER HILL  N/A       49  47  93 E20G27     N/A
* CIRCLE       N/A       52  48  86 SE11       N/A
* LINDSAY DVD  N/A       49  48  96 E14G20     N/A
* NAVAJO       N/A       45  44  96 SE7G12     N/A
$$

MTZ028>042-056>058-300100-
SOUTHCENTRAL AND SOUTHEAST MONTANA
CITY           SKY/WX    TMP DP  RH WIND       PRES   REMARKS
BAKER          CLOUDY    50  48  93 SE16      29.93S
BILLINGS       PTCLDY    57  48  72 NE6       29.84S
LIVINGSTON     CLOUDY    54  46  74 S10       29.84F
MILES CITY     CLOUDY    57  48  72 E7        29.85F
* LAUREL APT   PTCLDY    59  48  67 N5         N/A
* ROUNDUP APT  PTCLDY    57  46  67 SE5        N/A
* ALZADA       N/A       50  50 100 E11        N/A
* HYSHAM       N/A       56  48  75 E6         N/A
* LAME DEER    N/A       53  51  93 NE9        N/A
* REED POINT   N/A       56  45  67 S1         N/A
* ROSCOE HILL  N/A       52  38  59 SE2        N/A
$$

REGIONAL REPORTS...DAKOTAS
CITY           SKY/WX    TMP DP  RH WIND       PRES   REMARKS
WILLISTON      CLOUDY    52  46  80 SE10      29.97F
DICKINSON      CLOUDY    48  46  93 SE8       29.97S
BEACH          N/A       48  48 100 SE16G21   29.94F
CROSBY         CLOUDY    50  46  86 SE14      30.00F
TIOGA          CLOUDY    48  48 100 SE12      30.02F
WATFORD CITY   CLOUDY    48  46  93 SE10      29.96F
BISMARCK       CLOUDY    57  48  72 E12       30.01F
GRAND FORKS    PTCLDY    57  46  67 NE3       30.09F
FARGO          CLEAR     61  46  58 SE7       30.08F
BUFFALO SD     MOCLDY    52  48  86 E8        29.87F
RAPID CITY     FOG       52  50  93 CALM      29.93F VSB 2
$$

REGIONAL REPORTS...WYOMING/IDAHO/WASHINGTON
CITY           SKY/WX    TMP DP  RH WIND       PRES   REMARKS
GILLETTE       MOCLDY    61  46  58 S17       29.87R
SHERIDAN       MOCLDY    63  48  58 CALM      29.83S
CODY           CLOUDY    54  50  86 S6        29.89S
YELLOWSTONE LA CLOUDY    43  36  76 CALM      30.03R
SALMON         CLOUDY    59  45  60 CALM      29.84S
MULLAN PASS    FOG       43  43 100 VRB3      29.90S VSB M1/4
SAND POINT     CLOUDY    61  46  58 SW5       29.80S
SPOKANE        MOCLDY    70  43  38 SW14      29.77F

$$




USA.gov is the U.S. government's official web portal to all federal, state and local government web resources and services.